Location: Stargard Szczeciński
(53.2000°N, 15.2000°E)
Time: 10:19:48
(UTC+02:00)

ISS - Visible Passes

Search period start: 26 September 2018 00:00
Search period end: 06 October 2018 00:00
Orbit: 403 x 408 km, 51.6° (Epoch: 26 September)

Date Brightness Start Highest point End Pass type
(mag) Time Alt. Az. Time Alt. Az. Time Alt. Az.
26 Sep -3.1 20:12:17 10° SW 20:15:21 36° SSE 20:16:23 28° ESE visible
26 Sep -1.1 21:48:20 10° W 21:49:04 16° WSW 21:49:04 16° WSW visible
27 Sep -2.5 19:20:45 10° SSW 19:23:35 26° SSE 19:26:25 10° E visible
27 Sep -3.4 20:56:29 10° WSW 20:59:15 52° SW 20:59:15 52° SW visible
28 Sep -3.5 20:04:40 10° WSW 20:07:53 52° SSE 20:09:23 27° ESE visible
28 Sep -1.3 21:40:58 10° W 21:42:03 19° W 21:42:03 19° W visible
29 Sep -3.1 19:12:55 10° SW 19:16:03 40° SSE 19:19:11 10° E visible
29 Sep -3.7 20:49:04 10° W 20:52:07 64° SSW 20:52:07 64° SSW visible
30 Sep -3.7 19:57:10 10° WSW 20:00:27 64° S 20:02:08 26° E visible
30 Sep -1.4 21:33:34 10° W 21:34:48 20° W 21:34:48 20° W visible
01 Oct -3.7 20:41:38 10° W 20:44:47 62° SSW 20:44:47 62° SSW visible
02 Oct -3.7 19:49:40 10° W 19:52:58 68° S 19:54:46 24° ESE visible
02 Oct -1.4 21:26:09 10° W 21:27:26 20° W 21:27:26 20° W visible
03 Oct -3.4 20:34:09 10° W 20:37:23 49° SSW 20:37:24 49° SSW visible
04 Oct -3.5 19:42:10 10° W 19:45:26 60° S 19:47:23 22° ESE visible
04 Oct -1.3 21:18:49 10° W 21:20:03 18° WSW 21:20:03 18° WSW visible
05 Oct -2.7 20:26:42 10° W 20:29:43 34° SSW 20:30:03 33° S visible
